Location: Kawakawa
(35.3830°S, 174.0670°E)
Time: 05:30:15
(UTC+13:00)

Altair - Pass Details

Date: 11 December 2019
Orbit: 1502 x 1682 km, 47.2° (Epoch: 23 January)

Event Time Altitude Azimuth Distance (km) Brightness Sun altitude
Rises 17:05:34 0° 237° (WSW) 4,940 10.8 39.2°
Reaches altitude 10° 17:08:46 10° 239° (WSW) 3,958 10.6 38.6°
Maximum altitude 17:18:51 67° 318° (NW) 1,806 8.8 36.5°
Drops below altitude 10° 17:28:47 10° 37° (NE) 3,900 9.4 34.5°
Sets 17:31:54 0° 40° (NE) 4,865 9.8 33.9°
